Location: Adrasan
(36.3319°N, 30.4314°E)
Time: 07:40:41
(UTC+00:00)

Cosmos 1553 Rocket - Pass Details

Date: 09 December 2023
Orbit: 941 x 1007 km, 82.9° (Epoch: 29 February)

Event Time Altitude Azimuth Distance (km) Brightness Sun altitude
Rises 15:44:48 0° 0° (N) 3,698 6.8 -12.2°
Reaches altitude 10° 15:47:30 10° 8° (N) 2,736 6.1 -12.7°
Maximum altitude 15:53:25 43° 78° (ENE) 1,328 4.3 -13.8°
Drops below altitude 10° 15:59:12 10° 149° (SSE) 2,679 6.2 -14.9°
Sets 16:01:48 0° 156° (SSE) 3,612 6.9 -15.4°
